GW3840 Weather Reports


Display with metric or nautical units.
time (UTC)temp
F
wind
direction
speed
MPH
gust
MPH
rain 1hr
in
rain 24hr
in
rain mn
in
humidity
%
barometer
mb
20260508052237 42 161 1.0 1.0 0.00 0.00 0.00 68 1009.5
20260508051733 42 93 1.0 2.0 0.00 0.00 0.00 71 1009.6
20260508051228 42 188 0.0 2.0 0.00 0.00 0.00 75 1009.6
20260508050725 41 227 0.0 0.0 0.00 0.00 0.00 86 1009.5
20260508050222 42 227 0.0 0.0 0.00 0.00 0.00 83 1009.4
20260508045718 42 227 0.0 0.0 0.00 0.00 0.00 83 1009.6
20260508045216 41 227 0.0 0.0 0.00 0.00 0.00 82 1009.6
20260508044714 41 227 0.0 0.0 0.00 0.00 0.00 81 1009.5
20260508044210 42 227 0.0 0.0 0.00 0.00 0.00 82 1009.5
20260508043706 42 228 0.0 0.0 0.00 0.00 0.00 82 1009.6
20260508043204 42 228 0.0 0.0 0.00 0.00 0.00 79 1009.7
20260508042700 42 228 0.0 0.0 0.00 0.00 0.00 78 1009.6
20260508042158 42 228 0.0 0.0 0.00 0.00 0.00 79 1009.9
20260508041654 43 228 0.0 0.0 0.00 0.00 0.00 79 1009.7
20260508041151 43 228 0.0 1.0 0.00 0.00 0.00 78 1009.7
20260508040648 43 228 0.0 1.0 0.00 0.00 0.00 78 1009.9
20260508040145 43 228 0.0 0.0 0.00 0.00 0.00 79 1009.7
20260508035642 43 228 0.0 0.0 0.00 0.00 0.00 77 1010.0
20260508035140 44 228 0.0 1.0 0.00 0.00 0.00 75 1009.7
20260508034636 44 228 1.0 1.0 0.00 0.00 0.00 76 1010.0
20260508034133 44 229 1.0 1.0 0.00 0.00 0.00 77 1009.9
20260508033630 44 223 0.0 1.0 0.00 0.00 0.00 77 1010.0
20260508033129 44 228 1.0 1.0 0.00 0.00 0.00 75 1009.9
20260508032625 44 229 0.0 1.0 0.00 0.00 0.00 72 1010.0
20260508032122 44 215 1.0 1.0 0.00 0.00 0.00 69 1009.9
20260508031619 44 215 1.0 1.0 0.00 0.00 0.00 65 1010.0
20260508031115 44 215 0.0 1.0 0.00 0.00 0.00 66 1010.1
20260508030612 44 215 0.0 0.0 0.00 0.00 0.00 63 1010.2
20260508030110 45 215 0.0 1.0 0.00 0.00 0.00 62 1010.0
20260508025606 45 215 0.0 0.0 0.00 0.00 0.00 63 1009.9
20260508025103 45 215 0.0 1.0 0.00 0.00 0.00 64 1009.9
20260508024559 43 228 1.0 1.0 0.00 0.00 0.00 57 1010.1
20260508024056 43 227 0.0 0.0 0.00 0.00 0.00 55 1010.1
20260508023552 44 227 0.0 0.0 0.00 0.00 0.00 57 1009.9
20260508023050 44 228 0.0 0.0 0.00 0.00 0.00 55 1010.0
20260508022546 45 227 0.0 0.0 0.00 0.00 0.00 53 1009.9
20260508022043 45 227 0.0 0.0 0.00 0.00 0.00 50 1009.7
20260508021539 46 227 0.0 0.0 0.00 0.00 0.00 48 1009.7
20260508021034 46 227 0.0 0.0 0.00 0.00 0.00 47 1009.7
20260508020532 46 227 0.0 0.0 0.00 0.00 0.00 46 1009.6
20260508020030 48 228 0.0 0.0 0.00 0.00 0.00 45 1009.6
20260508015527 48 228 0.0 0.0 0.00 0.00 0.00 43 1009.5
20260508015024 49 233 0.0 0.0 0.00 0.00 0.00 41 1009.6
20260508014520 51 234 0.0 0.0 0.00 0.00 0.00 40 1009.5
20260508014017 52 234 0.0 0.0 0.00 0.00 0.00 38 1009.4
20260508013513 53 238 0.0 1.0 0.00 0.00 0.00 36 1009.6
20260508013010 54 243 1.0 1.0 0.00 0.00 0.00 34 1009.6
20260508012507 55 248 2.0 2.0 0.00 0.00 0.00 34 1009.4
20260508012005 55 249 2.0 3.0 0.00 0.00 0.00 32 1009.6
20260508011503 55 257 1.0 2.0 0.00 0.00 0.00 32 1009.7
20260508011000 55 265 1.0 4.0 0.00 0.00 0.00 33 1009.4
20260508010457 56 267 2.0 3.0 0.00 0.00 0.00 32 1009.9
20260508005954 56 307 2.0 2.0 0.00 0.00 0.00 32 1009.5
20260508005450 56 280 4.0 7.0 0.00 0.00 0.00 31 1009.5
20260508004947 57 247 2.0 4.0 0.00 0.00 0.00 32 1009.5
20260508004443 57 316 6.0 10.0 0.00 0.00 0.00 31 1009.4
20260508003940 57 271 2.0 8.0 0.00 0.00 0.00 32 1009.6
20260508003437 57 305 4.0 6.0 0.00 0.00 0.00 31 1009.4
20260508002934 58 335 8.0 10.0 0.00 0.00 0.00 30 1009.4
20260508002431 58 285 3.0 6.0 0.00 0.00 0.00 31 1009.4
20260508001926 58 282 6.0 8.0 0.00 0.00 0.00 30 1009.5
20260508001423 58 282 6.0 8.0 0.00 0.00 0.00 30 1009.4
20260508000920 58 282 6.0 8.0 0.00 0.00 0.00 30 1009.4
20260508000415 58 282 6.0 8.0 0.00 0.00 0.00 30 1009.6
20260507235913 58 282 6.0 8.0 0.00 0.00 0.00 30 1009.5
20260507235410 58 263 3.0 4.0 0.00 0.00 0.00 30 1009.7
20260507234907 58 205 3.0 3.0 0.00 0.00 0.00 33 1009.7
20260507234403 58 205 3.0 3.0 0.00 0.00 0.00 33 1009.7
20260507233900 58 205 3.0 3.0 0.00 0.00 0.00 33 1009.7
20260507233357 58 287 6.0 8.0 0.00 0.00 0.00 32 1009.6
20260507232855 58 266 8.0 11.0 0.00 0.00 0.00 32 1009.6
20260507232351 58 312 1.0 4.0 0.00 0.00 0.00 33 1009.4
20260507231849 58 331 3.0 3.0 0.00 0.00 0.00 33 1009.9
20260507231345 56 299 5.0 9.0 0.00 0.00 0.00 32 1009.7
20260507230842 57 329 1.0 7.0 0.00 0.00 0.00 35 1009.9
20260507230339 59 309 6.0 7.0 0.00 0.00 0.00 30 1009.9
20260507225839 57 265 7.0 14.0 0.00 0.00 0.00 31 1009.9
20260507225335 58 216 8.0 15.0 0.00 0.00 0.00 32 1010.0
20260507224831 58 344 6.0 10.0 0.00 0.00 0.00 32 1009.9
20260507224328 57 299 2.0 4.0 0.00 0.00 0.00 35 1009.9
20260507223824 55 6 5.0 7.0 0.00 0.00 0.00 34 1010.1
20260507223320 56 351 4.0 6.0 0.00 0.00 0.00 34 1010.1
20260507222818 56 310 3.0 8.0 0.00 0.00 0.00 35 1010.0
20260507222314 56 289 3.0 7.0 0.00 0.00 0.00 35 1010.1
20260507221811 56 253 5.0 7.0 0.00 0.00 0.00 33 1010.1
20260507221308 57 271 3.0 4.0 0.00 0.00 0.00 34 1010.2
20260507220804 57 286 6.0 11.0 0.00 0.00 0.00 33 1010.3
20260507220303 57 298 4.0 6.0 0.00 0.00 0.00 33 1010.4
20260507215758 58 333 4.0 9.0 0.00 0.00 0.00 33 1010.3
20260507215256 59 257 5.0 8.0 0.00 0.00 0.00 31 1010.4
20260507214753 58 330 5.0 9.0 0.00 0.00 0.00 32 1010.4
20260507214250 57 334 4.0 6.0 0.00 0.00 0.00 32 1010.6
20260507213745 57 354 5.0 6.0 0.00 0.00 0.00 32 1010.5
20260507213242 57 308 4.0 6.0 0.00 0.00 0.00 36 1010.5
20260507212739 57 308 4.0 6.0 0.00 0.00 0.00 36 1010.5
20260507212235 57 308 4.0 6.0 0.00 0.00 0.00 36 1010.7
20260507211732 57 308 4.0 6.0 0.00 0.00 0.00 36 1010.8
20260507211228 57 308 4.0 6.0 0.00 0.00 0.00 36 1010.6
20260507210725 57 1 5.0 6.0 0.00 0.00 0.00 34 1010.8
20260507210222 57 330 4.0 10.0 0.00 0.00 0.00 34 1010.8
20260507205718 56 254 5.0 9.0 0.00 0.00 0.00 32 1010.9
20260507205215 57 238 4.0 10.0 0.00 0.00 0.00 34 1010.6
20260507204711 57 283 6.0 7.0 0.00 0.00 0.00 33 1010.7
20260507204209 57 352 7.0 9.0 0.00 0.00 0.00 32 1010.8
20260507203707 58 290 4.0 6.0 0.00 0.00 0.00 36 1010.9
20260507203204 58 290 4.0 6.0 0.00 0.00 0.00 36 1010.9
20260507202700 57 277 7.0 9.0 0.00 0.00 0.00 32 1010.8
20260507202156 57 223 7.0 9.0 0.00 0.00 0.00 31 1011.0
20260507201651 56 299 9.0 13.0 0.00 0.00 0.00 31 1011.2
20260507201148 54 8 4.0 10.0 0.00 0.00 0.00 33 1011.1
20260507200645 56 358 4.0 10.0 0.00 0.00 0.00 33 1011.0
20260507200141 56 356 5.0 7.0 0.00 0.00 0.00 37 1011.0
20260507195637 55 265 6.0 10.0 0.00 0.00 0.00 37 1011.3
20260507195135 55 265 6.0 10.0 0.00 0.00 0.00 37 1011.4
20260507194631 55 265 6.0 10.0 0.00 0.00 0.00 37 1011.4
20260507194126 55 265 6.0 10.0 0.00 0.00 0.00 37 1011.3
20260507193624 55 265 6.0 10.0 0.00 0.00 0.00 37 1011.4
20260507193121 55 265 6.0 10.0 0.00 0.00 0.00 37 1011.5
20260507192617 55 265 6.0 10.0 0.00 0.00 0.00 37 1011.5
20260507192115 55 265 6.0 10.0 0.00 0.00 0.00 37 1011.4
20260507191610 55 312 7.0 9.0 0.00 0.00 0.00 36 1011.4
20260507191107 55 312 7.0 9.0 0.00 0.00 0.00 36 1011.4
20260507190604 55 277 6.0 9.0 0.00 0.00 0.00 36 1011.7
20260507185601 55 254 4.0 6.0 0.00 0.00 0.00 37 1011.6
20260507185057 55 254 4.0 6.0 0.00 0.00 0.00 37 1011.6
20260507184555 55 254 4.0 6.0 0.00 0.00 0.00 37 1011.8
20260507184053 55 254 4.0 6.0 0.00 0.00 0.00 37 1012.0
20260507183549 55 254 4.0 6.0 0.00 0.00 0.00 37 1011.8
20260507183046 55 254 4.0 6.0 0.00 0.00 0.00 37 1011.8
20260507182542 55 254 4.0 6.0 0.00 0.00 0.00 37 1011.9
20260507182038 53 329 4.0 4.0 0.00 0.00 0.00 38 1011.9
20260507181536 53 329 4.0 4.0 0.00 0.00 0.00 38 1011.9
20260507181031 53 329 4.0 4.0 0.00 0.00 0.00 38 1012.0
20260507180528 53 329 4.0 4.0 0.00 0.00 0.00 38 1012.1
20260507180025 53 329 4.0 4.0 0.00 0.00 0.00 38 1012.1
20260507175521 53 329 4.0 4.0 0.00 0.00 0.00 38 1012.5
20260507175019 53 329 4.0 4.0 0.00 0.00 0.00 38 1012.5
20260507174516 53 329 4.0 4.0 0.00 0.00 0.00 38 1012.1
20260507174014 53 294 5.0 7.0 0.00 0.00 0.00 39 1012.2
20260507173510 53 294 5.0 7.0 0.00 0.00 0.00 39 1012.5
20260507173008 53 294 5.0 7.0 0.00 0.00 0.00 39 1012.5
20260507172503 53 294 5.0 7.0 0.00 0.00 0.00 39 1012.6
20260507172000 52 342 3.0 4.0 0.00 0.00 0.00 38 1012.6
20260507171455 51 282 2.0 3.0 0.00 0.00 0.00 41 1012.7
20260507170953 53 353 3.0 6.0 0.00 0.00 0.00 37 1012.8
20260507170450 53 237 5.0 8.0 0.00 0.00 0.00 40 1012.8
20260507165946 52 270 4.0 4.0 0.00 0.00 0.00 40 1013.0
20260507165442 51 262 8.0 13.0 0.00 0.00 0.00 38 1012.9
20260507164938 50 224 4.0 6.0 0.00 0.00 0.00 39 1012.8
20260507164435 51 215 3.0 7.0 0.00 0.00 0.00 38 1012.9
20260507163932 51 225 7.0 8.0 0.00 0.00 0.00 40 1013.1
20260507163430 51 240 2.0 2.0 0.00 0.00 0.00 42 1013.0
20260507162926 51 240 2.0 2.0 0.00 0.00 0.00 42 1012.9
20260507162421 51 251 3.0 4.0 0.00 0.00 0.00 42 1013.1
20260507161920 50 248 5.0 8.0 0.00 0.00 0.00 40 1013.0
20260507161415 50 206 2.0 2.0 0.00 0.00 0.00 42 1013.1
20260507160912 50 206 2.0 2.0 0.00 0.00 0.00 42 1013.2
20260507160408 50 206 2.0 8.0 0.00 0.00 0.00 42 1013.3
20260507155904 50 227 2.0 3.0 0.00 0.00 0.00 42 1013.2
20260507155400 50 210 0.0 1.0 0.00 0.00 0.00 42 1013.3
20260507154857 49 248 4.0 4.0 0.00 0.00 0.00 43 1013.2
20260507154354 49 206 6.0 7.0 0.00 0.00 0.00 41 1013.1
20260507153851 49 224 1.0 2.0 0.00 0.00 0.00 42 1013.3
20260507153347 48 292 2.0 6.0 0.00 0.00 0.00 46 1013.3
20260507152844 49 237 4.0 6.0 0.00 0.00 0.00 45 1013.2
20260507152340 48 258 5.0 6.0 0.00 0.00 0.00 44 1013.2
20260507151836 48 258 5.0 6.0 0.00 0.00 0.00 44 1013.3
20260507151332 48 258 5.0 6.0 0.00 0.00 0.00 44 1013.2
20260507150830 48 258 5.0 7.0 0.00 0.00 0.00 44 1013.2
20260507150321 49 194 2.0 6.0 0.00 0.00 0.00 46 1013.1
20260507145817 48 222 3.0 7.0 0.00 0.00 0.00 45 1013.4
20260507145313 47 280 5.0 7.0 0.00 0.00 0.00 45 1013.4
20260507144811 47 167 3.0 4.0 0.00 0.00 0.00 47 1013.4
20260507144308 48 237 3.0 6.0 0.00 0.00 0.00 47 1013.4
20260507143804 47 219 3.0 4.0 0.00 0.00 0.00 48 1013.3
20260507143302 46 168 2.0 8.0 0.00 0.00 0.00 50 1013.4
20260507142757 46 235 6.0 8.0 0.00 0.00 0.00 50 1013.5
20260507142254 46 215 4.0 6.0 0.00 0.00 0.00 51 1013.4
20260507141751 45 222 4.0 6.0 0.00 0.00 0.00 51 1013.5
20260507141248 44 156 1.0 8.0 0.00 0.00 0.00 53 1013.4
20260507140744 44 200 3.0 3.0 0.00 0.00 0.00 51 1013.3
20260507140242 44 217 2.0 3.0 0.00 0.00 0.00 53 1013.3
20260507135738 43 214 4.0 6.0 0.00 0.00 0.00 54 1013.4
20260507135236 43 230 2.0 6.0 0.00 0.00 0.00 60 1013.3
20260507134732 43 161 2.0 4.0 0.00 0.00 0.00 60 1013.1
20260507134228 43 204 2.0 4.0 0.00 0.00 0.00 58 1013.3
20260507133724 42 232 1.0 2.0 0.00 0.00 0.00 63 1013.3
20260507133221 42 241 4.0 7.0 0.00 0.00 0.00 62 1013.3
20260507132719 42 235 2.0 6.0 0.00 0.00 0.00 62 1013.4
20260507132215 41 166 1.0 3.0 0.00 0.00 0.00 64 1013.4
20260507131712 41 144 2.0 3.0 0.00 0.00 0.00 66 1013.5
20260507131210 41 239 1.0 6.0 0.00 0.00 0.00 68 1013.3
20260507130706 40 218 3.0 4.0 0.00 0.00 0.00 67 1013.5
20260507130204 40 177 2.0 2.0 0.00 0.00 0.00 68 1013.7
20260507125702 40 177 2.0 2.0 0.00 0.00 0.00 68 1013.5
20260507125200 39 212 1.0 3.0 0.00 0.00 0.00 69 1013.6
20260507124656 39 236 1.0 3.0 0.00 0.00 0.00 70 1013.4
20260507124153 39 208 1.0 2.0 0.00 0.00 0.00 70 1013.3
20260507123652 38 183 0.0 1.0 0.00 0.00 0.00 71 1013.3
20260507123148 38 222 1.0 2.0 0.00 0.00 0.00 72 1013.3
20260507122643 38 205 0.0 1.0 0.00 0.00 0.00 73 1013.4
20260507122139 37 215 1.0 2.0 0.00 0.00 0.00 73 1013.4
20260507121635 37 235 1.0 2.0 0.00 0.00 0.00 73 1013.3
20260507121132 37 182 0.0 3.0 0.00 0.00 0.00 74 1013.4
20260507120628 36 167 2.0 2.0 0.00 0.00 0.00 74 1013.4
20260507120125 36 179 1.0 3.0 0.00 0.00 0.00 75 1013.3
20260507115621 35 206 0.0 3.0 0.00 0.00 0.00 75 1013.2
20260507115117 35 180 0.0 1.0 0.00 0.00 0.00 76 1013.3
20260507114613 34 221 2.0 3.0 0.00 0.00 0.00 78 1013.3
20260507114110 33 201 2.0 3.0 0.00 0.00 0.00 79 1013.3
20260507113608 33 190 0.0 1.0 0.00 0.00 0.00 81 1013.1
20260507113105 32 199 0.0 1.0 0.00 0.00 0.00 83 1013.1
20260507112603 32 196 0.0 1.0 0.00 0.00 0.00 83 1013.4
20260507112059 31 172 0.0 1.0 0.00 0.00 0.00 87 1013.2
20260507111555 31 172 0.0 1.0 0.00 0.00 0.00 87 1013.4
20260507111052 28 195 0.0 0.0 0.00 0.00 0.00 91 1013.3
20260507110548 28 195 0.0 0.0 0.00 0.00 0.00 91 1013.3
20260507110045 28 195 0.0 0.0 0.00 0.00 0.00 91 1013.2
20260507105542 28 195 0.0 0.0 0.00 0.00 0.00 91 1013.4
20260507105038 28 195 0.0 0.0 0.00 0.00 0.00 91 1013.4
20260507104536 29 201 0.0 0.0 0.00 0.00 0.00 90 1013.4
20260507104032 29 201 0.0 0.0 0.00 0.00 0.00 90 1013.6
20260507103528 29 190 0.0 0.0 0.00 0.00 0.00 88 1013.5
20260507103025 30 201 0.0 0.0 0.00 0.00 0.00 86 1013.5
20260507102522 31 208 0.0 0.0 0.00 0.00 0.00 84 1013.5
20260507102018 31 208 0.0 0.0 0.00 0.00 0.00 84 1013.5
20260507101513 31 196 0.0 0.0 0.00 0.00 0.00 83 1013.6
20260507101010 32 184 0.0 0.0 0.00 0.00 0.00 82 1013.6
20260507100507 32 184 0.0 0.0 0.00 0.00 0.00 82 1013.4
20260507100006 32 173 1.0 1.0 0.00 0.00 0.00 83 1013.5
20260507095503 30 194 0.0 0.0 0.00 0.00 0.00 87 1013.4
20260507094959 30 194 0.0 0.0 0.00 0.00 0.00 87 1013.5
20260507094455 30 194 0.0 0.0 0.00 0.00 0.00 87 1013.3
20260507093953 30 194 0.0 0.0 0.00 0.00 0.00 87 1013.5
20260507093450 30 194 0.0 0.0 0.00 0.00 0.00 87 1013.5
20260507092949 30 194 0.0 0.0 0.00 0.00 0.00 87 1013.6
20260507092445 30 194 0.0 0.0 0.00 0.00 0.00 87 1013.6
20260507091941 30 194 0.0 0.0 0.00 0.00 0.00 87 1013.7
20260507091438 30 194 0.0 0.0 0.00 0.00 0.00 87 1013.7
20260507090934 30 194 0.0 0.0 0.00 0.00 0.00 87 1013.6
20260507090430 30 190 0.0 0.0 0.00 0.00 0.00 84 1013.6
20260507085926 30 182 0.0 0.0 0.00 0.00 0.00 83 1013.5
20260507085424 30 192 0.0 0.0 0.00 0.00 0.00 81 1013.6
20260507084915 31 192 0.0 1.0 0.00 0.00 0.00 81 1013.7
20260507084412 31 197 0.0 0.0 0.00 0.00 0.00 78 1013.8
20260507083909 32 170 0.0 1.0 0.00 0.00 0.00 76 1013.7
20260507083405 33 208 1.0 1.0 0.00 0.00 0.00 75 1013.7
20260507082902 33 195 0.0 0.0 0.00 0.00 0.00 73 1013.8
20260507082357 33 181 1.0 1.0 0.00 0.00 0.00 74 1013.7
20260507081855 33 181 1.0 1.0 0.00 0.00 0.00 74 1013.6
20260507081351 32 230 0.0 1.0 0.00 0.00 0.00 77 1013.7
20260507080848 31 193 0.0 1.0 0.00 0.00 0.00 79 1013.6
20260507080344 30 199 0.0 0.0 0.00 0.00 0.00 81 1013.5
20260507075839 31 191 0.0 0.0 0.00 0.00 0.00 81 1013.6
20260507075336 31 185 0.0 0.0 0.00 0.00 0.00 81 1013.7
20260507074832 31 192 1.0 2.0 0.00 0.00 0.00 82 1013.4
20260507074330 31 187 0.0 0.0 0.00 0.00 0.00 80 1013.8
20260507073827 31 194 0.0 0.0 0.00 0.00 0.00 80 1013.7
20260507073323 32 173 0.0 0.0 0.00 0.00 0.00 80 1013.8
20260507072821 32 199 0.0 0.0 0.00 0.00 0.00 80 1013.7
20260507072318 0 0.0 0.0 0.00 0.00 0.00 1013.8
20260507071815 0 0.0 0.0 0.00 0.00 0.00 1013.8
20260507071312 0 0.0 0.0 0.00 0.00 0.00 1013.9
20260507070809 0 0.0 0.0 0.00 0.00 0.00 1014.0
20260507070306 0 0.0 0.0 0.00 0.00 0.00 1014.0
20260507065802 0 0.0 0.0 0.00 0.00 0.00 1014.0
20260507065259 0 0.0 0.0 0.00 0.00 0.00 1013.9
20260507064756 0 0.0 0.0 0.00 0.00 0.00 1014.3
20260507064255 0 0.0 0.0 0.00 0.00 0.00 1014.1
20260507063753 0 0.0 0.0 0.00 0.00 0.00 1014.2
20260507063249 0 0.0 0.0 0.00 0.00 0.00 1014.2
20260507062746 29 188 0.0 0.0 0.00 0.00 0.00 88 1014.2
20260507062243 29 188 0.0 0.0 0.00 0.00 0.00 88 1014.3
20260507061741 29 188 0.0 0.0 0.00 0.00 0.00 88 1014.4
20260507061239 29 188 0.0 0.0 0.00 0.00 0.00 88 1014.3
20260507060737 29 188 0.0 0.0 0.00 0.00 0.00 88 1014.5
20260507060233 29 188 0.0 0.0 0.00 0.00 0.00 88 1014.5
20260507055729 29 188 0.0 0.0 0.00 0.00 0.00 88 1014.5
20260507055225 29 188 0.0 0.0 0.00 0.00 0.00 88 1014.5
20260507054721 29 188 0.0 0.0 0.00 0.00 0.00 88 1014.5
20260507054218 29 188 0.0 0.0 0.00 0.00 0.00 88 1014.5
20260507053716 29 188 0.0 0.0 0.00 0.00 0.00 88 1014.7
20260507053213 29 188 0.0 0.0 0.00 0.00 0.00 88 1014.7
20260507052712 30 187 0.0 0.0 0.00 0.00 0.00 86 1015.0